TimeCST,TemperatureF,Dew PointF,Humidity,Sea Level PressureIn,VisibilityMPH,Wind Direction,Wind SpeedMPH,Gust SpeedMPH,PrecipitationIn,Events,Conditions,WindDirDegrees,DateUTC
12:22 AM,53.6,51.8,94,30.14,7.0,West,5.8,-,N/A,,Overcast,280,2012-11-23 06:22:00
12:37 AM,53.6,51.8,94,30.15,9.0,NNW,11.5,17.3,N/A,,Overcast,330,2012-11-23 06:37:00
12:53 AM,54.0,46.9,77,30.14,10.0,NNW,12.7,18.4,0.01,,Overcast,340,2012-11-23 06:53:00
1:53 AM,51.1,39.9,66,30.18,10.0,NNW,10.4,18.4,N/A,,Overcast,340,2012-11-23 07:53:00
2:53 AM,48.0,35.1,61,30.20,10.0,NNW,8.1,20.7,N/A,,Clear,340,2012-11-23 08:53:00
3:53 AM,46.0,33.1,61,30.22,10.0,NNW,8.1,-,N/A,,Clear,340,2012-11-23 09:53:00
4:53 AM,45.0,33.1,63,30.25,10.0,NNW,11.5,16.1,N/A,,Scattered Clouds,330,2012-11-23 10:53:00
5:53 AM,42.1,32.0,67,30.27,10.0,NW,4.6,-,N/A,,Clear,310,2012-11-23 11:53:00
6:53 AM,39.0,30.9,73,30.27,10.0,WNW,6.9,-,N/A,,Clear,290,2012-11-23 12:53:00
7:53 AM,42.1,33.1,70,30.29,10.0,WNW,6.9,-,N/A,,Clear,290,2012-11-23 13:53:00
8:53 AM,46.9,30.0,52,30.29,10.0,WNW,15.0,24.2,N/A,,Clear,290,2012-11-23 14:53:00
9:53 AM,46.9,28.0,48,30.32,10.0,NW,17.3,25.3,N/A,,Clear,320,2012-11-23 15:53:00
10:53 AM,46.9,30.0,52,30.32,10.0,NW,16.1,24.2,N/A,,Partly Cloudy,310,2012-11-23 16:53:00
11:53 AM,46.0,28.9,51,30.32,10.0,NW,17.3,24.2,N/A,,Mostly Cloudy,320,2012-11-23 17:53:00
12:53 PM,46.0,28.0,50,30.32,10.0,NW,12.7,21.9,N/A,,Partly Cloudy,310,2012-11-23 18:53:00
1:53 PM,46.0,27.0,47,30.31,10.0,NW,13.8,21.9,N/A,,Clear,310,2012-11-23 19:53:00
2:53 PM,46.0,25.0,44,30.32,10.0,NW,15.0,19.6,N/A,,Clear,320,2012-11-23 20:53:00
3:53 PM,44.1,23.0,43,30.34,10.0,WNW,13.8,20.7,N/A,,Clear,300,2012-11-23 21:53:00
4:53 PM,39.9,21.9,49,30.35,10.0,NW,11.5,-,N/A,,Clear,310,2012-11-23 22:53:00
5:53 PM,37.0,21.0,52,30.36,10.0,WNW,9.2,-,N/A,,Clear,300,2012-11-23 23:53:00
6:53 PM,34.0,21.0,59,30.38,10.0,WNW,5.8,-,N/A,,Clear,290,2012-11-24 00:53:00
7:53 PM,34.0,21.0,59,30.38,10.0,NW,8.1,-,N/A,,Clear,310,2012-11-24 01:53:00
8:53 PM,33.1,19.9,59,30.38,10.0,NW,6.9,-,N/A,,Clear,310,2012-11-24 02:53:00
9:53 PM,30.9,19.0,61,30.38,10.0,NW,6.9,-,N/A,,Clear,310,2012-11-24 03:53:00
10:53 PM,30.9,17.1,57,30.37,10.0,NW,9.2,-,N/A,,Clear,320,2012-11-24 04:53:00
11:53 PM,28.9,16.0,58,30.38,10.0,NNW,4.6,-,N/A,,Clear,330,2012-11-24 05:53:00